Location: *
(2.5500°S, 65.9667°W)
Time: 04:26:00
(UTC+00:00)

SRMSAT - Pass Details

Date: 04 July 2022
Orbit: 848 x 865 km, 20.0° (Epoch: 13 August)

Event Time Altitude Azimuth Distance (km) Brightness Sun altitude
Exits shadow 09:44:05 13° 263° (W) 2,240 ? -11.2°
Maximum altitude 09:48:52 38° 198° (SSW) 1,257 ? -10.1°
Drops below altitude 10° 09:54:22 10° 131° (SE) 2,470 ? -8.8°
Sets 09:57:06 0° 123° (ESE) 3,409 ? -8.2°
